Vertical_Velocity
1 2 4 -0 -3 -3 -1 -0 2 -0 -5 -3 -1 3 -1 0 2 2 1 1 2 4 8 4 4 4 7 7 7 7 -5 2 -1 -0 2 1 -3 -1 1 -0 -0 1 2 -0
-4 -1 -2 -1 0 0 -1 -1 2 -2 1 -2 -1 5 0 1 3 3 3 4 3 4 5 6 5 4 3 1 -0 1 0 -0 4 3 3 2 1 0 -2 -4 -3 -5 -9 -6
3 -1 -0 -1 -3 -2 -1 2 1 -1 -3 -2 -3 5 4 3 1 -0 0 1 3 3 3 3 1 1 2 -0 -0 1 1 2 2 0 -0 -0 -1 0 -6 -6 -2 1 5 3
-2 -2 -2 -2 -1 -2 5 0 -1 -0 0 16 -5 11 1 2 1 3 3 3 2 1 0 -1 -1 -2 -2 -1 -2 -2 3 3 4 4 1 -1 1 3 5 5 1 -6 -6 -4
-0 2 1 1 -1 -2 -2 -2 1 1 1 -0 -1 6 5 -0 7 6 1 1 1 2 2 2 0 -0 -1 -1 2 5 6 5 3 -1 3 6 7 7 -5 -8 -6 1 -5 -0
-2 -2 -2 -2 -3 -4 -4 -2 -2 -3 -1 4 -2 1 5 9 3 0 0 1 0 0 -0 -1 -2 -0 4 4 4 3 3 2 5 7 3 3 -4 -2 -7 -1 -2 -0 -2 -2
0 -0 -1 -1 3 -2 1 1 4 3 5 4 -5 -0 4 -4 -3 -2 -0 1 1 1 0 -1 -0 1 -0 -1 1 2 -3 -0 -1 -6 -4 -1 -11 -7 -1 -0 -2 1 1 -0
2 9 -2 -1 -1 -1 -2 -3 -0 1 1 1 -5 4 15 -1 1 1 0 -1 1 1 -2 -3 -0 -0 0 6 -0 1 8 -6 -4 -12 -4 -3 -2 -2 1 -1 -1 -1 -5 -1
-1 1 -3 -4 -3 -4 -4 -1 -3 -1 -3 1 -3 -5 0 2 3 2 -1 -2 -5 -6 -3 -1 1 3 2 -5 -8 -8 -4 -2 3 -0 -3 -1 -3 -4 -4 -1 -2 -2 -3 -3
-2 3 -2 -2 -4 -4 -3 -5 4 -4 -0 -2 -0 -1 11 -1 6 -0 -1 -1 -2 -2 -2 -3 2 -3 -3 -5 -1 2 -3 -5 -1 -2 -6 -4 -3 -3 -3 -4 -3 -1 -1 -2
-1 -1 -1 -2 -0 2 2 3 -3 -4 -3 2 -0 1 -8 -1 -0 -2 -3 -0 -2 -3 -3 -3 -3 -2 -3 -4 -4 0 2 0 -2 -0 -2 -0 2 -1 0 -1 -3 -0 -1 -5
-1 -1 -0 -0 -1 -1 -2 1 -1 -0 2 -0 -0 -13 -3 1 3 -2 -1 -1 2 3 1 -2 -2 -5 -3 -3 -1 -5 -7 -1 -2 -1 -2 -4 0 -0 -1 -4 1 -7 2 -4
-3 -2 1 1 -2 -1 2 1 0 -2 -2 -5 4 -1 -11 -5 10 2 -0 4 -1 -5 2 -0 -1 -0 -1 -1 -2 5 2 -2 2 4 6 -3 -4 -3 -0 0 -3 -2 2 3
-2 -1 -1 3 4 1 0 -0 1 2 2 -5 -4 -14 0 4 -2 -1 -2 -2 1 2 -0 -1 -1 -4 -5 -3 -3 -1 -2 -0 -1 -2 -1 -0 -4 -2 -3 -2 0 -3 -4 3
-1 -0 -0 -2 -6 3 2 0 -1 1 -1 2 -9 5 3 -4 -6 -1 6 6 3 0 1 -1 1 -0 2 2 -0 1 -0 -3 -5 -0 2 0 -1 -4 -7 -4 -1 -4 -2 3
-2 -1 -2 -4 -6 4 -3 6 0 -1 7 -0 1 -11 -6 -1 2 2 -2 1 -2 -1 -0 -0 -1 2 1 1 5 0 -3 -0 -1 -4 -3 -2 -2 0 -4 -2 -3 -2 1 1
-1 -1 -3 -6 -6 3 -4 0 5 1 4 3 0 5 1 1 0 -1 -4 0 -1 -2 -2 -1 -1 1 -1 -3 -6 4 0 -1 -1 -4 -2 -2 -6 -2 -1 -2 -3 -1 1 -0
1 1 0 -5 -4 1 -3 -1 -3 -4 4 1 2 1 -1 -1 3 7 -12 -2 -3 -2 0 -0 1 1 -0 -2 -1 -1 -1 -5 -0 -1 -0 -1 -0 2 -1 -3 -1 -2 -1 -1
-1 0 -0 -1 -3 -16 -11 1 -2 -4 -13 -6 -0 3 2 5 2 12 4 3 1 -2 -5 -3 -4 -3 -3 -7 -2 -1 2 -0 3 -1 1 1 2 2 -3 -2 1 -0 -2 -1
-2 -2 3 -0 -1 -0 7 -7 -2 -1 1 -5 -0 -6 -3 -7 -11 -7 -7 -3 -4 -4 -4 -2 0 -1 -0 -1 -1 -2 -1 2 3 0 0 1 2 0 -1 -0 0 -1 -3 -2
-1 -2 -0 -1 -1 -8 1 3 -1 -1 5 -4 -1 -5 -4 -1 -1 -6 -1 -1 -1 -0 1 2 3 -3 -3 -1 -0 2 1 1 3 -0 -1 1 1 -1 -0 -1 -1 -3 0 1
3 -0 -3 -0 1 -5 -1 5 2 -3 -0 3 3 1 -1 -4 -2 -1 -1 1 1 -2 -2 -2 -4 -2 -1 -0 3 7 7 0 0 2 2 2 2 -0 -2 -2 -2 -2 -3 -1
-3 -2 -1 -5 -17 7 13 -1 1 -2 -2 2 -1 -2 -3 1 -1 0 -0 1 1 -1 -4 -2 -4 -5 3 -0 -1 -1 7 2 2 1 0 0 -0 -2 -2 -3 -2 -3 -1 -2
-4 2 -1 11 -1 2 2 -1 1 1 4 4 -0 -0 1 -1 2 3 1 -2 -6 -1 -7 -5 -5 -0 -2 4 7 -2 -2 1 4 1 0 1 0 -0 -0 0 -1 -2 -2 1
9 4 1 -6 1 -3 -2 -4 4 12 3 1 1 -0 -2 -4 -2 -5 -3 -3 -6 -6 -5 -2 -1 -3 0 -0 4 5 6 7 6 1 -0 2 1 -1 -0 -1 -2 3 -3 1
16 3 -0 -5 1 1 -0 -1 -1 -1 -3 -3 -1 -3 -1 -0 -2 -2 -1 2 1 -0 0 -2 2 3 3 -0 0 0 3 8 2 -1 1 -1 1 -0 0 -1 1 -9 2 -3
Height
3163 3166 3166 3164 3164 3164 3164 3164 3164 3164 3163 3164 3164 3163 3161 3159 3160 3161 3162 3163 3163 3164 3166 3166 3166 3166 3165 3164 3164 3161 3158 3158 3157 3155 3153 3151 3149 3146 3142 3140 3136 3132 3129 3125
3165 3164 3164 3164 3163 3162 3161 3162 3163 3163 3162 3162 3163 3163 3161 3160 3160 3160 3161 3161 3162 3162 3163 3163 3162 3162 3161 3160 3159 3158 3156 3154 3153 3151 3148 3146 3144 3140 3137 3134 3131 3127 3122 3118
3164 3164 3163 3162 3162 3162 3161 3162 3161 3162 3161 3161 3162 3163 3162 3161 3160 3160 3160 3160 3159 3159 3159 3160 3160 3159 3159 3158 3157 3156 3154 3151 3148 3146 3143 3139 3136 3132 3129 3126 3122 3119 3115 3109
3162 3162 3162 3162 3161 3161 3162 3160 3159 3159 3160 3158 3159 3156 3161 3160 3160 3159 3158 3157 3157 3157 3158 3158 3158 3157 3157 3155 3154 3152 3149 3146 3143 3140 3136 3133 3128 3125 3121 3116 3112 3109 3105 3100
3162 3161 3161 3161 3160 3160 3160 3158 3156 3155 3157 3158 3158 3158 3158 3160 3160 3158 3156 3156 3156 3156 3156 3156 3155 3154 3152 3150 3148 3145 3142 3140 3137 3133 3130 3125 3120 3116 3110 3107 3102 3097 3092 3088
3160 3160 3161 3160 3160 3159 3158 3156 3156 3156 3157 3157 3158 3158 3156 3159 3157 3156 3155 3154 3153 3153 3153 3152 3151 3150 3147 3145 3142 3140 3137 3134 3130 3126 3121 3116 3110 3106 3104 3098 3092 3086 3081 3076
3161 3161 3161 3160 3161 3159 3159 3157 3155 3157 3156 3154 3156 3156 3155 3155 3155 3154 3153 3152 3151 3151 3150 3148 3146 3144 3141 3139 3137 3135 3132 3126 3120 3115 3111 3107 3102 3097 3091 3085 3079 3074 3069 3064
3162 3163 3161 3160 3160 3160 3158 3158 3159 3158 3156 3156 3155 3153 3153 3152 3152 3151 3151 3150 3149 3147 3145 3144 3142 3139 3136 3134 3131 3128 3125 3118 3114 3108 3105 3098 3092 3086 3081 3075 3070 3064 3058 3052
3162 3163 3161 3160 3160 3160 3160 3160 3160 3159 3159 3157 3153 3153 3151 3150 3150 3149 3148 3147 3146 3144 3142 3141 3138 3135 3132 3127 3124 3123 3119 3114 3108 3101 3094 3088 3082 3077 3072 3065 3059 3052 3044 3037
3161 3163 3161 3160 3160 3159 3160 3160 3161 3160 3159 3156 3149 3149 3149 3149 3150 3148 3146 3144 3143 3142 3139 3137 3134 3129 3125 3122 3119 3115 3109 3102 3096 3091 3085 3078 3072 3065 3058 3052 3045 3037 3028 3021
3160 3161 3162 3160 3159 3159 3160 3159 3158 3159 3159 3157 3153 3148 3148 3149 3148 3146 3145 3143 3140 3138 3134 3131 3127 3124 3119 3115 3109 3103 3098 3092 3086 3080 3073 3067 3061 3054 3047 3039 3031 3023 3015 3009
3159 3159 3159 3159 3156 3156 3156 3157 3157 3157 3158 3157 3157 3150 3144 3146 3145 3142 3140 3137 3134 3131 3129 3125 3120 3116 3111 3106 3101 3096 3090 3083 3075 3068 3062 3056 3050 3042 3034 3027 3019 3011 3005 2999
3159 3159 3159 3158 3158 3156 3156 3156 3155 3154 3155 3154 3154 3147 3144 3143 3142 3139 3134 3132 3129 3126 3123 3119 3114 3109 3104 3098 3092 3085 3079 3072 3065 3059 3053 3046 3039 3032 3024 3016 3008 3002 2996 2989
3157 3157 3158 3158 3157 3155 3154 3154 3153 3153 3152 3149 3145 3142 3142 3141 3138 3135 3130 3126 3124 3120 3115 3110 3105 3099 3093 3087 3081 3075 3068 3062 3058 3052 3045 3036 3028 3020 3013 3006 2998 2992 2988 2982
3155 3155 3154 3154 3152 3150 3149 3149 3148 3146 3146 3146 3141 3140 3139 3136 3131 3128 3125 3121 3117 3113 3109 3102 3096 3089 3084 3077 3070 3064 3059 3053 3047 3041 3033 3025 3018 3010 3003 2997 2991 2984 2979 2973
3153 3153 3151 3149 3149 3146 3144 3142 3140 3140 3139 3139 3137 3135 3132 3128 3126 3122 3119 3115 3110 3104 3098 3092 3085 3080 3074 3068 3062 3057 3050 3044 3037 3030 3022 3015 3009 3001 2994 2989 2983 2977 2972 2966
3151 3151 3150 3147 3146 3142 3140 3138 3138 3138 3136 3136 3133 3132 3127 3124 3119 3115 3111 3107 3101 3094 3088 3082 3076 3071 3066 3061 3056 3049 3042 3035 3028 3021 3014 3006 3000 2993 2987 2982 2976 2971 2965 2959
3149 3148 3148 3146 3144 3140 3135 3134 3133 3132 3132 3131 3128 3124 3121 3118 3114 3110 3102 3097 3091 3086 3080 3075 3069 3065 3060 3054 3049 3043 3035 3028 3020 3013 3006 2999 2992 2986 2980 2975 2969 2963 2958 2952
3147 3146 3145 3145 3143 3137 3130 3129 3130 3129 3127 3124 3122 3119 3116 3112 3107 3105 3096 3091 3086 3079 3073 3068 3063 3058 3053 3047 3042 3034 3027 3019 3012 3004 2998 2992 2985 2979 2973 2968 2962 2956 2951 2944
3144 3144 3144 3142 3141 3134 3129 3126 3124 3122 3122 3118 3117 3114 3108 3104 3099 3095 3090 3085 3078 3072 3066 3060 3056 3050 3044 3038 3031 3024 3017 3011 3004 2997 2990 2985 2979 2973 2968 2962 2957 2951 2944 2937
3140 3139 3138 3137 3135 3128 3124 3121 3120 3121 3120 3113 3108 3105 3101 3097 3092 3085 3080 3074 3069 3065 3060 3055 3049 3043 3036 3030 3022 3015 3008 3002 2995 2989 2983 2977 2972 2967 2962 2957 2951 2944 2937 2930
3137 3136 3133 3131 3129 3124 3121 3118 3117 3113 3108 3104 3100 3097 3093 3088 3083 3078 3072 3067 3063 3059 3054 3048 3041 3034 3027 3021 3013 3007 3000 2993 2987 2982 2976 2971 2966 2962 2957 2951 2945 2938 2931 2924
3131 3130 3130 3127 3122 3120 3116 3110 3108 3104 3100 3097 3093 3090 3086 3080 3075 3070 3065 3061 3057 3052 3046 3039 3032 3024 3017 3010 3003 2998 2992 2985 2979 2974 2969 2964 2960 2956 2951 2945 2938 2932 2926 2918
3124 3123 3119 3117 3112 3111 3108 3105 3101 3097 3094 3090 3087 3082 3077 3073 3069 3064 3060 3055 3049 3043 3036 3028 3021 3015 3008 3001 2993 2987 2982 2977 2972 2967 2962 2958 2954 2950 2945 2939 2933 2927 2920 2913
3118 3116 3110 3106 3104 3103 3101 3098 3094 3090 3087 3083 3079 3076 3071 3067 3062 3057 3051 3045 3039 3032 3024 3017 3010 3003 2996 2989 2983 2977 2973 2969 2964 2960 2956 2953 2949 2944 2939 2934 2928 2923 2915 2908
3109 3107 3102 3098 3098 3096 3094 3091 3088 3085 3081 3078 3074 3069 3065 3061 3055 3049 3044 3038 3030 3022 3014 3007 3001 2993 2986 2979 2973 2968 2964 2960 2956 2953 2951 2947 2943 2939 2934 2929 2924 2917 2913 2904